EDT,Max TemperatureF,Mean TemperatureF,Min TemperatureF,Max Dew PointF,MeanDew PointF,Min DewpointF,Max Humidity, Mean Humidity, Min Humidity, Max Sea Level PressureIn, Mean Sea Level PressureIn, Min Sea Level PressureIn, Max VisibilityMiles, Mean VisibilityMiles, Min VisibilityMiles, Max Wind SpeedMPH, Mean Wind SpeedMPH, Max Gust SpeedMPH,PrecipitationIn, CloudCover, Events, WindDirDegrees
2013-3-1,36,32,28,30,26,23,100,85,69,29.73,29.68,29.60,10,10,4,13,10,22,0.00,8,,332
2013-3-2,30,27,23,27,23,19,92,78,63,29.73,29.71,29.69,10,8,2,14,10,18,0.00,8,,326
2013-3-3,28,25,21,25,21,18,96,86,75,29.71,29.68,29.65,10,8,2,9,5,,0.00,8,,326
2013-3-4,30,26,21,21,18,16,88,73,58,29.86,29.73,29.67,10,9,3,13,8,17,0.00,8,,303
2013-3-5,36,30,23,25,22,19,96,78,59,30.07,30.01,29.86,10,10,6,10,5,16,0.01,5,,357
2013-3-6,37,31,25,28,24,19,100,76,52,30.15,30.10,30.05,10,10,4,16,6,29,0.00,8,,69
2013-3-7,36,32,27,27,22,19,92,74,56,30.14,30.12,30.09,10,8,2,14,9,17,0.00,8,,349
2013-3-8,37,31,25,27,24,21,92,76,59,30.28,30.16,30.08,10,7,1,17,8,23,0.07,4,,341
2013-3-9,46,30,14,25,21,10,92,65,37,30.33,30.30,30.26,10,10,10,12,6,,0.00,0,,77
2013-3-10,55,40,25,27,21,14,85,53,20,30.33,30.25,30.17,10,10,10,15,9,17,0.00,2,,140
2013-3-11,54,45,36,34,27,21,70,50,30,30.20,30.10,29.99,10,10,10,20,11,28,0.00,2,,130
2013-3-12,48,43,37,46,42,34,93,82,70,30.01,29.84,29.67,10,9,1,21,14,29,0.70,7,,137
2013-3-13,39,35,30,34,25,16,92,66,40,29.82,29.78,29.73,10,10,8,8,4,,0.00,7,,296
2013-3-14,30,23,16,27,14,3,92,67,42,29.86,29.78,29.73,10,8,1,15,9,24,0.00,8,,285
2013-3-15,34,22,10,27,13,3,85,64,42,29.88,29.74,29.57,10,9,3,14,7,27,0.00,6,,274
2013-3-16,28,24,19,21,12,7,81,62,42,29.88,29.80,29.71,10,10,10,13,6,17,0.00,6,,340
2013-3-17,28,20,12,14,8,0,96,67,37,30.30,30.06,29.87,10,10,10,14,6,22,0.00,2,,333
2013-3-18,36,22,7,21,2,-2,81,52,22,30.41,30.28,30.10,10,10,4,15,8,27,0.00,2,,124
2013-3-19,32,30,27,27,24,21,92,82,72,30.09,29.82,29.68,10,4,0,27,13,38,0.04,8,,146
2013-3-20,34,28,21,25,18,14,81,67,53,29.74,29.70,29.66,10,9,3,17,9,25,0.00,6,,243
2013-3-21,34,26,18,19,14,7,81,58,35,29.75,29.68,29.61,10,10,8,10,5,16,0.00,4,,278
2013-3-22,34,23,12,23,16,7,88,67,45,29.75,29.67,29.63,10,9,3,12,6,22,0.00,5,,240
2013-3-23,37,32,27,19,17,14,75,58,40,29.80,29.72,29.67,10,10,10,21,11,35,0.00,8,,287
2013-3-24,37,32,27,21,20,19,81,65,48,29.85,29.80,29.77,10,10,10,13,6,20,0.00,7,,334
2013-3-25,41,32,23,27,22,18,88,65,41,29.78,29.65,29.53,10,10,10,12,4,17,0.00,5,,57
2013-3-26,43,35,27,28,23,16,92,63,34,29.81,29.71,29.59,10,10,3,12,7,25,0.00,5,,333
2013-3-27,46,35,23,27,22,18,81,61,40,29.91,29.83,29.79,10,10,5,14,6,20,0.00,6,,343
2013-3-28,46,38,30,34,30,27,96,73,49,30.06,29.98,29.91,10,10,4,10,5,16,0.00,7,,330
2013-3-29,45,38,30,36,31,28,96,77,57,30.09,30.05,30.02,10,10,9,10,4,,0.01,8,,54
2013-3-30,52,40,27,32,23,14,92,59,26,30.10,30.07,30.02,10,10,5,12,5,17,0.00,1,,104
2013-3-31,54,41,27,36,22,18,85,55,24,30.10,29.95,29.73,10,10,10,18,10,27,0.04,3,,159